Location: ?????
(38.2579°N, 22.9711°E)
Time: 13:30:13
(UTC+00:00)

Cosmos 2360 Rocket - Pass Details

Date: 13 December 2025
Orbit: 834 x 842 km, 71.0° (Epoch: 17 January)

Event Time Altitude Azimuth Distance (km) Brightness Sun altitude
Rises 18:08:27 0° 204° (SSW) 3,381 5.7 -34.5°
Reaches altitude 10° 18:10:53 10° 206° (SSW) 2,450 4.9 -34.9°
Enters shadow 18:12:48 22° 208° (SSW) 1,746 4.0 -35.3°
